User: anonymous   Login
Location: Oroua River
(40.4333°S, 175.4333°E)
Time: 19:43:17
(UTC+00:00)
Language:

Cosmos 1802 Rocket - Orbit

View from above orbital plane
View from above orbital plane
View from above satellite
View from above satellite

Ground track
Ground track

The orbit data is extracted from the following two-line orbital elements,

1 17160U 86093B   24151.59003983  .00000021  00000-0  69521-5 0  9992
2 17160  82.9276 340.3197 0037453 271.3281 147.6331 13.74774287881488
Epoch (UTC): 30 May 2024 14:09:39
Eccentricity: 0.0037453
inclination: 82.9276°
perigee height: 955 km
apogee height: 1010 km
right ascension of ascending node: 340.3197°
argument of perigee: 271.3281°
revolutions per day: 13.74774287
mean anomaly at epoch: 147.6331°
orbit number at epoch: 88148

The dashed part of the orbit path shows where the satellite is in the earth's shadow,  

DLR